This is the latest recevied weather packets stored in our database for station/object KI4FRU. If no packets are shown the sender has not sent any weather packets the latest 10 day(s).
| Time | Temp. | Humidity | Pressure | Rain* | Wind** | Luminosity | Snow |
|---|---|---|---|---|---|---|---|
| 1777612496 | 12.22° C | 72% | 1053.2 hPa | 0 mm | - | 0 W/m² | - |
| 1777612192 | 12.22° C | 73% | 1053.2 hPa | 0 mm | - | 0 W/m² | - |
| 1777611887 | 12.22° C | 73% | 1053.2 hPa | 0 mm | - | 0 W/m² | - |
| 1777611584 | 11.67° C | 73% | 1053 hPa | 0 mm | - | 0 W/m² | - |
| 1777611280 | 11.67° C | 74% | 1052.8 hPa | 0 mm | - | 0 W/m² | - |
| 1777610978 | 11.11° C | 79% | 1052.9 hPa | 0 mm | - | 0 W/m² | - |
| 1777610673 | 11.67° C | 78% | 1052.9 hPa | 0 mm | - | 0 W/m² | - |
| 1777610366 | 11.67° C | 75% | 1052.8 hPa | 0 mm | - | 0 W/m² | - |
| 1777610063 | 11.67° C | 76% | 1052.8 hPa | 0 mm | - | 0 W/m² | - |
| 1777609760 | 11.11° C | 77% | 1052.8 hPa | 0 mm | - | 0 W/m² | - |
| 1777609456 | 11.11° C | 77% | 1052.5 hPa | 0 mm | - | 0 W/m² | - |
| 1777609154 | 11.11° C | 78% | 1052.7 hPa | 0 mm | - | 0 W/m² | - |
| 1777608850 | 11.11° C | 77% | 1052.6 hPa | 0 mm | - | 0 W/m² | - |
| 1777608548 | 11.11° C | 77% | 1052.6 hPa | 0 mm | - | 0 W/m² | - |
| 1777608245 | 11.11° C | 80% | 1052.7 hPa | 0 mm | - | 0 W/m² | - |
| 1777607943 | 11.11° C | 79% | 1052.7 hPa | 0 mm | - | 0 W/m² | - |
| 1777607643 | 11.11° C | 79% | 1052.8 hPa | 0 mm | - | 0 W/m² | - |
| 1777607341 | 11.67° C | 77% | 1052.5 hPa | 0 mm | - | 0 W/m² | - |
| 1777607036 | 11.67° C | 76% | 1052.8 hPa | 0 mm | - | 0 W/m² | - |
| 1777606727 | 11.67° C | 75% | 1052.5 hPa | 0 mm | - | 0 W/m² | - |
| 1777606422 | 12.22° C | 77% | 1052.4 hPa | 0 mm | - | 0 W/m² | - |
| 1777606117 | 12.22° C | 77% | 1052.3 hPa | 0 mm | - | 0 W/m² | - |
| 1777605814 | 12.22° C | 70% | 1052.4 hPa | 0 mm | - | 0 W/m² | - |
| 1777605513 | 12.78° C | 74% | 1052.4 hPa | 0 mm | - | 0 W/m² | - |
| 1777605209 | 12.78° C | 73% | 1052.4 hPa | 0 mm | - | 0 W/m² | - |
* Rain latest hour (hover to see other rain measurements)
** Current wind speed in m/s (hover to see current wind gust speed)